Simultaneous Nadir Overpasses (SNOs) Predictions

Prediction of SNOs between GOES-16 and NOAA-20 Satellite Orbit:

Table of predicted SNOs for the next 14.0 days since TLE Epoch: 9/14/2018
Index Date Time (GOES-16) GOES-16 Lat,Lon NOAA-20 Lat,Lon Distance(km) Time Diff (sec)
1 09/15/2018 06:16:48 -0.01, -75.22 -0.37, -73.50 195.29 80
2 09/16/2018 18:38:45 0.02, -75.23 -0.77, -78.81 408.34 80
3 09/17/2018 18:22:41 0.02, -75.24 0.24, -74.28 109.32 80
4 09/19/2018 06:44:29 -0.03, -75.27 0.92, -79.56 488.32 80
5 09/20/2018 06:23:05 -0.03, -75.29 -0.09, -75.03 29.68 80
6 09/22/2018 18:28:57 0.03, -75.32 -0.09, -75.80 54.43 80
7 09/23/2018 18:10:12 0.03, -75.34 0.93, -71.27 464.18 80
8 09/25/2018 06:32:00 -0.03, -75.39 0.23, -76.54 132.02 80
9 09/26/2018 06:10:36 -0.03, -75.41 -0.78, -72.01 386.90 80
10 09/27/2018 18:35:12 0.03, -75.44 -0.40, -77.32 214.35 80




NCC Satellite Simultaneous Nadir Overpasses (SNOs) Prediction Service
